ETD1 OMAA-KJFK

Flight info

Callsign ETD1
Flight time N/A
Altitude 34000
Route BOSEV N563 ALPOB L768 VATIM L550 NOVPA N697 MENLI L677 CVO L617 NABSI M872 METRU DCT ARLOS DCT DOBIX DCT SONAK DCT MORJA UA411 BNA UZ444 DAHRA UA411 MOS UM744 CARBO DCT GOLFO DCT OBAKA DCT UMUKA/N0488F360 DCT MGA DCT MAR DCT SVL M744 LASIB DCT BUSEN DCT ERPES/M085F360 DCT 41N020W 42N030W 4330N04000W/M085F380 45N050W DCT RAFIN/N0486F380 DCT KANNI DCT PLYMM PARCH4
Aircraft A35K/H-SDE2E3GHIJ3J4J5LM1ORWXY/LB1D1

Departure

Time N/A
Airport Zayed International Airport (OMAA)

Arrival

Time 2026-04-30 21:18
Airport John F. Kennedy International Airport (KJFK)
Time Latitude Longitude Altitude Speed Heading
2026-04-30 19:48 44.35254 -44.89845 38185 ft 490 kts 282°
2026-04-30 19:49 44.35954 -44.94502 38183 ft 489 kts 282°
2026-04-30 19:49 44.38040 -45.08459 38186 ft 489 kts 282°
2026-04-30 19:50 44.39423 -45.17777 38187 ft 490 kts 282°
2026-04-30 19:50 44.40799 -45.27109 38193 ft 490 kts 282°
2026-04-30 19:51 44.42169 -45.36446 38200 ft 490 kts 282°
2026-04-30 19:51 44.43530 -45.45788 38200 ft 490 kts 282°
2026-04-30 19:52 44.44878 -45.55098 38203 ft 487 kts 282°
2026-04-30 19:52 44.46215 -45.64395 38202 ft 487 kts 282°
2026-04-30 19:53 44.47544 -45.73685 38208 ft 487 kts 282°
2026-04-30 19:53 44.48869 -45.82992 38208 ft 487 kts 282°
2026-04-30 19:54 44.50185 -45.92304 38214 ft 487 kts 282°
2026-04-30 19:54 44.51492 -46.01607 38217 ft 487 kts 282°
2026-04-30 19:55 44.52827 -46.11165 38218 ft 488 kts 281°
2026-04-30 19:55 44.57923 -46.48315 38226 ft 484 kts 282°
2026-04-30 19:56 44.62899 -46.85477 38235 ft 484 kts 281°
2026-04-30 19:56 44.67717 -47.22404 38245 ft 484 kts 281°
2026-04-30 19:57 44.72441 -47.59599 38248 ft 484 kts 281°
2026-04-30 19:57 44.77055 -47.96948 38253 ft 484 kts 281°
2026-04-30 19:58 44.81538 -48.34299 38254 ft 483 kts 281°
2026-04-30 19:58 44.85907 -48.71732 38260 ft 484 kts 280°
2026-04-30 19:59 44.90154 -49.09238 38262 ft 484 kts 280°
2026-04-30 20:00 44.96280 -49.65488 38265 ft 482 kts 279°
2026-04-30 20:00 44.99649 -50.03046 38274 ft 483 kts 268°
2026-04-30 20:01 44.96347 -50.59804 38263 ft 483 kts 265°
2026-04-30 20:01 44.93956 -50.97387 38267 ft 480 kts 265°
2026-04-30 20:02 44.90160 -51.53399 38264 ft 476 kts 265°
2026-04-30 20:03 44.85973 -52.09080 38257 ft 476 kts 264°
2026-04-30 20:03 44.82962 -52.45887 38251 ft 476 kts 264°
2026-04-30 20:04 44.79812 -52.82889 38251 ft 474 kts 264°
2026-04-30 20:05 44.74882 -53.38159 38248 ft 474 kts 263°
2026-04-30 20:05 44.69696 -53.93216 38238 ft 472 kts 263°
2026-04-30 20:06 44.66111 -54.29677 38222 ft 471 kts 261°
2026-04-30 20:06 44.62417 -54.66023 38225 ft 470 kts 261°
2026-04-30 20:07 44.58598 -55.02386 38215 ft 470 kts 260°
2026-04-30 20:08 44.52665 -55.56779 38205 ft 470 kts 259°
2026-04-30 20:08 44.48566 -55.92977 38195 ft 470 kts 258°
2026-04-30 20:09 44.44360 -56.29067 38189 ft 470 kts 258°
2026-04-30 20:09 44.37837 -56.83098 38175 ft 468 kts 258°
2026-04-30 20:10 44.31125 -57.36515 38154 ft 466 kts 258°
2026-04-30 20:11 44.24140 -57.89975 38137 ft 463 kts 258°
2026-04-30 20:11 44.19381 -58.25298 38132 ft 463 kts 258°
2026-04-30 20:12 44.15168 -58.55914 38392 ft 462 kts 257°
2026-04-30 20:12 44.12726 -58.73286 38110 ft 462 kts 258°
2026-04-30 20:13 44.10205 -58.91065 38108 ft 462 kts 257°
2026-04-30 20:13 44.05166 -59.25995 38102 ft 459 kts 257°
2026-04-30 20:14 44.00073 -59.60520 38094 ft 459 kts 257°
2026-04-30 20:14 43.94843 -59.95195 38086 ft 459 kts 257°
2026-04-30 20:15 43.89503 -60.29883 38075 ft 460 kts 257°
2026-04-30 20:15 43.84048 -60.64540 38070 ft 460 kts 256°
2026-04-30 20:16 43.78496 -60.99086 38062 ft 459 kts 256°
2026-04-30 20:16 43.72863 -61.33432 38055 ft 457 kts 256°
2026-04-30 20:17 43.67155 -61.67554 38045 ft 454 kts 255°
2026-04-30 20:17 43.61358 -62.01529 38027 ft 454 kts 255°
2026-04-30 20:18 43.55467 -62.35417 38020 ft 454 kts 255°
2026-04-30 20:18 43.49480 -62.69202 38020 ft 454 kts 254°
2026-04-30 20:19 43.43395 -63.02903 38005 ft 454 kts 254°
2026-04-30 20:19 43.37212 -63.36548 37989 ft 454 kts 254°
2026-04-30 20:20 43.30949 -63.70022 37976 ft 452 kts 254°
2026-04-30 20:20 43.24605 -64.03354 37979 ft 456 kts 253°
2026-04-30 20:21 43.17970 -64.37590 37963 ft 464 kts 253°
2026-04-30 20:21 43.11251 -64.71663 37940 ft 462 kts 253°
2026-04-30 20:22 43.04509 -65.05281 37920 ft 460 kts 253°
2026-04-30 20:22 43.01159 -65.21786 37924 ft 460 kts 253°
2026-04-30 20:23 42.99445 -65.30198 37924 ft 459 kts 253°
2026-04-30 20:23 42.97725 -65.38592 37918 ft 458 kts 253°
2026-04-30 20:24 42.93724 -65.57931 37907 ft 456 kts 253°
2026-04-30 20:24 42.86770 -65.91169 37907 ft 455 kts 253°
2026-04-30 20:25 42.76157 -66.40894 37880 ft 456 kts 253°
2026-04-30 20:26 42.65349 -66.90363 37864 ft 452 kts 253°
2026-04-30 20:26 42.59571 -67.23470 38037 ft 450 kts 257°
2026-04-30 20:26 42.56999 -67.39774 38027 ft 447 kts 257°
2026-04-30 20:27 42.48225 -67.93954 38009 ft 447 kts 257°
2026-04-30 20:28 42.45510 -68.10389 38003 ft 447 kts 257°
2026-04-30 20:30 42.42079 -68.30920 38003 ft 448 kts 257°
2026-04-30 20:31 42.37903 -68.55601 38007 ft 448 kts 257°
2026-04-30 20:32 42.34380 -68.76143 38001 ft 449 kts 257°
2026-04-30 20:33 42.32248 -68.88464 37995 ft 449 kts 257°
2026-04-30 20:34 42.30101 -69.00782 37992 ft 449 kts 257°
2026-04-30 20:35 42.28186 -69.11696 37986 ft 449 kts 257°
2026-04-30 20:35 42.25779 -69.25329 37992 ft 449 kts 257°
2026-04-30 20:36 42.24324 -69.33526 37993 ft 449 kts 257°
2026-04-30 20:37 42.22366 -69.44485 37991 ft 449 kts 257°
2026-04-30 20:37 42.20898 -69.52675 37996 ft 449 kts 257°
2026-04-30 20:38 42.19423 -69.60849 37995 ft 448 kts 257°
2026-04-30 20:38 42.18228 -69.67448 38003 ft 448 kts 257°
2026-04-30 20:39 42.15994 -69.79737 37993 ft 449 kts 257°
2026-04-30 20:40 42.13754 -69.91968 38008 ft 447 kts 257°
2026-04-30 20:40 42.12261 -70.00080 38009 ft 446 kts 257°
2026-04-30 20:41 42.10012 -70.12235 38023 ft 446 kts 257°
2026-04-30 20:41 42.08508 -70.20320 38032 ft 445 kts 257°
2026-04-30 20:42 42.06999 -70.28395 38010 ft 444 kts 257°
2026-04-30 20:43 42.04726 -70.40456 38010 ft 443 kts 256°
2026-04-30 20:43 42.02588 -70.48244 38019 ft 445 kts 249°
2026-04-30 20:44 41.98965 -70.59733 38008 ft 444 kts 249°
2026-04-30 20:45 41.94151 -70.74983 37992 ft 443 kts 249°
2026-04-30 20:45 41.91738 -70.82597 37993 ft 444 kts 249°
2026-04-30 20:46 41.88123 -70.93958 37753 ft 441 kts 249°
2026-04-30 20:46 41.86919 -70.97730 37482 ft 438 kts 249°
2026-04-30 20:47 41.84510 -71.05273 36940 ft 436 kts 249°
2026-04-30 20:47 41.83317 -71.08999 36658 ft 435 kts 249°
2026-04-30 20:48 41.80932 -71.16428 36126 ft 432 kts 249°
2026-04-30 20:48 41.79744 -71.20121 35900 ft 431 kts 249°
2026-04-30 20:48 41.78558 -71.23802 35642 ft 430 kts 249°
2026-04-30 20:48 41.77371 -71.27478 35368 ft 429 kts 249°
2026-04-30 20:49 41.76189 -71.31137 35130 ft 428 kts 248°
2026-04-30 20:49 41.75024 -71.34741 34889 ft 427 kts 248°
2026-04-30 20:49 41.73835 -71.38374 34649 ft 426 kts 247°
2026-04-30 20:50 41.70499 -71.44923 34173 ft 432 kts 229°
2026-04-30 20:50 41.68241 -71.47610 33913 ft 435 kts 225°
2026-04-30 20:50 41.65926 -71.50180 33194 ft 432 kts 224°
2026-04-30 20:50 41.63604 -71.52749 32164 ft 436 kts 224°
2026-04-30 20:51 41.61258 -71.55357 31117 ft 442 kts 224°
2026-04-30 20:51 41.56479 -71.60673 28946 ft 452 kts 223°
2026-04-30 20:51 41.54058 -71.63365 27983 ft 452 kts 222°
2026-04-30 20:52 41.51641 -71.66048 27137 ft 451 kts 223°
2026-04-30 20:52 41.49235 -71.68720 26368 ft 448 kts 222°
2026-04-30 20:52 41.44474 -71.73997 24991 ft 442 kts 222°
2026-04-30 20:53 41.42116 -71.76608 24379 ft 438 kts 221°
2026-04-30 20:53 41.39779 -71.79192 24078 ft 437 kts 221°
2026-04-30 20:53 41.37438 -71.81778 23994 ft 438 kts 221°
2026-04-30 20:54 41.32744 -71.86956 23989 ft 438 kts 221°
2026-04-30 20:54 41.30400 -71.89536 23989 ft 437 kts 221°
2026-04-30 20:54 41.28058 -71.92114 23992 ft 437 kts 221°
2026-04-30 20:55 41.23372 -71.97265 23985 ft 436 kts 221°
2026-04-30 20:55 41.21085 -71.99768 23565 ft 428 kts 221°
2026-04-30 20:55 41.18759 -72.02316 22587 ft 429 kts 220°
2026-04-30 20:56 41.14168 -72.07345 20977 ft 425 kts 220°
2026-04-30 20:56 41.11948 -72.09841 20246 ft 422 kts 223°
2026-04-30 20:56 41.08807 -72.16239 18784 ft 416 kts 249°
2026-04-30 20:57 41.07887 -72.19874 18090 ft 414 kts 250°
2026-04-30 20:57 41.07023 -72.23457 17706 ft 402 kts 250°
2026-04-30 20:57 41.06176 -72.26930 17417 ft 389 kts 250°
2026-04-30 20:58 41.04581 -72.33395 16702 ft 351 kts 249°
2026-04-30 20:58 41.03837 -72.36386 16339 ft 334 kts 249°
2026-04-30 20:58 41.03127 -72.39238 16000 ft 318 kts 249°
2026-04-30 20:58 41.02448 -72.41964 15561 ft 307 kts 249°
2026-04-30 20:59 41.01127 -72.47250 14400 ft 298 kts 249°
2026-04-30 20:59 41.00477 -72.49843 13799 ft 295 kts 250°
2026-04-30 21:00 40.99196 -72.54950 12519 ft 290 kts 250°
2026-04-30 21:00 40.97918 -72.60029 12191 ft 291 kts 250°
2026-04-30 21:01 40.96644 -72.65093 12195 ft 289 kts 250°
2026-04-30 21:01 40.96007 -72.67615 12190 ft 289 kts 250°
2026-04-30 21:01 40.94731 -72.72661 12190 ft 289 kts 250°
2026-04-30 21:02 40.94093 -72.75182 12190 ft 289 kts 250°
2026-04-30 21:02 40.93392 -72.77670 12189 ft 289 kts 244°
2026-04-30 21:02 40.92359 -72.79930 12190 ft 287 kts 230°
2026-04-30 21:02 40.90936 -72.81778 12177 ft 287 kts 218°
2026-04-30 21:03 40.89330 -72.83352 12172 ft 288 kts 216°
2026-04-30 21:03 40.87696 -72.84893 12180 ft 288 kts 216°
2026-04-30 21:03 40.86066 -72.86437 12180 ft 288 kts 216°
2026-04-30 21:03 40.84438 -72.87988 12180 ft 288 kts 216°
2026-04-30 21:04 40.82813 -72.89540 12180 ft 288 kts 216°
2026-04-30 21:04 40.81189 -72.91092 12180 ft 288 kts 216°
2026-04-30 21:04 40.77941 -72.94197 12179 ft 288 kts 216°
2026-04-30 21:05 40.76317 -72.95749 12181 ft 288 kts 216°
2026-04-30 21:05 40.74698 -72.97296 12175 ft 287 kts 216°
2026-04-30 21:05 40.73103 -72.98818 12175 ft 286 kts 216°
2026-04-30 21:05 40.71469 -73.00378 12174 ft 286 kts 216°
2026-04-30 21:06 40.69924 -73.01969 12172 ft 286 kts 223°
2026-04-30 21:06 40.68802 -73.04114 12174 ft 287 kts 248°
2026-04-30 21:06 40.68463 -73.06699 12182 ft 289 kts 266°
2026-04-30 21:06 40.68471 -73.09343 12172 ft 289 kts 268°
2026-04-30 21:07 40.68508 -73.11990 12171 ft 289 kts 268°
2026-04-30 21:07 40.68537 -73.14643 12154 ft 289 kts 268°
2026-04-30 21:07 40.68559 -73.17290 12154 ft 289 kts 268°
2026-04-30 21:07 40.68628 -73.19939 12139 ft 290 kts 274°
2026-04-30 21:08 40.69240 -73.22456 11751 ft 291 kts 296°
2026-04-30 21:08 40.70409 -73.24640 11324 ft 292 kts 306°
2026-04-30 21:08 40.71698 -73.26714 10883 ft 291 kts 307°
2026-04-30 21:08 40.72989 -73.28768 10347 ft 289 kts 307°
2026-04-30 21:09 40.74257 -73.30801 9635 ft 285 kts 306°
2026-04-30 21:09 40.75506 -73.32798 8853 ft 280 kts 306°
2026-04-30 21:09 40.76749 -73.34764 8081 ft 277 kts 307°
2026-04-30 21:09 40.77982 -73.36717 7387 ft 277 kts 307°
2026-04-30 21:10 40.79217 -73.38672 6727 ft 278 kts 307°
2026-04-30 21:10 40.80454 -73.40640 6038 ft 278 kts 306°
2026-04-30 21:10 40.81688 -73.42593 5369 ft 276 kts 307°
2026-04-30 21:10 40.82917 -73.44529 4719 ft 273 kts 307°
2026-04-30 21:11 40.84123 -73.46429 4167 ft 268 kts 306°
2026-04-30 21:11 40.84958 -73.48584 3758 ft 263 kts 279°
2026-04-30 21:11 40.85138 -73.50970 3565 ft 260 kts 269°
2026-04-30 21:11 40.85145 -73.53362 3386 ft 261 kts 266°
2026-04-30 21:12 40.85136 -73.55763 3238 ft 261 kts 266°
2026-04-30 21:12 40.85042 -73.58147 3130 ft 255 kts 252°
2026-04-30 21:12 40.84185 -73.60016 3132 ft 229 kts 219°
2026-04-30 21:12 40.82895 -73.61145 3147 ft 221 kts 206°
2026-04-30 21:13 40.81552 -73.62092 3132 ft 212 kts 207°
2026-04-30 21:13 40.80317 -73.63049 3156 ft 201 kts 209°
2026-04-30 21:13 40.79132 -73.63982 3160 ft 193 kts 209°
2026-04-30 21:13 40.78029 -73.64855 3118 ft 180 kts 209°
2026-04-30 21:14 40.76964 -73.65707 2938 ft 179 kts 210°
2026-04-30 21:14 40.75922 -73.66538 2693 ft 172 kts 208°
2026-04-30 21:14 40.74922 -73.67320 2442 ft 166 kts 207°
2026-04-30 21:14 40.73942 -73.68089 2204 ft 156 kts 207°
2026-04-30 21:15 40.73055 -73.68789 2005 ft 146 kts 207°
2026-04-30 21:15 40.72210 -73.69459 1781 ft 136 kts 206°
2026-04-30 21:15 40.71415 -73.70073 1576 ft 131 kts 205°
2026-04-30 21:15 40.70618 -73.70671 1428 ft 132 kts 205°
2026-04-30 21:16 40.69833 -73.71296 1239 ft 132 kts 208°
2026-04-30 21:16 40.69072 -73.71971 1067 ft 131 kts 209°
2026-04-30 21:16 40.68289 -73.72599 888 ft 131 kts 204°
2026-04-30 21:16 40.67500 -73.73162 692 ft 131 kts 202°
2026-04-30 21:17 40.66692 -73.73773 556 ft 134 kts 205°
2026-04-30 21:17 40.65881 -73.74425 377 ft 138 kts 208°
2026-04-30 21:17 40.65065 -73.75063 206 ft 139 kts 207°
2026-04-30 21:17 40.64235 -73.75712 39 ft 137 kts 207°
2026-04-30 21:18 40.63551 -73.76243 28 ft 83 kts 211°
2026-04-30 21:18 40.63245 -73.76487 28 ft 30 kts 211°
2026-04-30 21:18 40.63065 -73.76643 30 ft 31 kts 220°
2026-04-30 21:18 40.62945 -73.76857 26 ft 28 kts 240°
2026-04-30 21:19 40.62947 -73.77010 28 ft 15 kts 300°
2026-04-30 21:19 40.63002 -73.77130 30 ft 16 kts 300°
2026-04-30 21:19 40.63061 -73.77261 33 ft 18 kts 301°
2026-04-30 21:19 40.63119 -73.77388 34 ft 13 kts 301°
2026-04-30 21:20 40.63154 -73.77466 36 ft 9 kts 301°
2026-04-30 21:20 40.63191 -73.77550 36 ft 13 kts 300°
2026-04-30 21:20 40.63208 -73.77587 35 ft 3 kts 301°
2026-04-30 21:20 40.63229 -73.77632 34 ft 9 kts 301°
2026-04-30 21:21 40.63271 -73.77724 33 ft 14 kts 301°
2026-04-30 21:21 40.63328 -73.77849 32 ft 16 kts 301°
2026-04-30 21:21 40.63488 -73.77840 29 ft 15 kts 32°
2026-04-30 21:22 40.63587 -73.77764 30 ft 16 kts 30°
2026-04-30 21:22 40.63809 -73.77718 29 ft 11 kts 326°
2026-04-30 21:23 40.63871 -73.77774 29 ft 11 kts 325°
2026-04-30 21:23 40.63942 -73.77834 29 ft 14 kts 330°
2026-04-30 21:23 40.64064 -73.77987 29 ft 12 kts 326°
2026-04-30 21:24 40.64110 -73.78022 29 ft 11 kts 330°
2026-04-30 21:24 40.64159 -73.78054 29 ft 8 kts 346°
2026-04-30 21:24 40.64217 -73.78047 29 ft 9 kts
2026-04-30 21:24 40.64273 -73.78037 29 ft 3 kts
2026-04-30 21:25 40.64289 -73.78035 29 ft 0 kts